This is the latest recevied weather packets stored in our database for station/object KC5AV. If no packets are shown the sender has not sent any weather packets the latest 10 day(s).
| Time | Temp. | Humidity | Pressure | Rain* | Wind** | Luminosity | Snow |
|---|---|---|---|---|---|---|---|
| 1777993073 | 22.22° C | 85% | 1008.8 hPa | 0 mm | - | 163 W/m² | - |
| 1777992772 | 22.22° C | 85% | 1008.7 hPa | 0 mm | - | 100 W/m² | - |
| 1777992469 | 22.22° C | 85% | 1008.7 hPa | 0 mm | - | 79 W/m² | - |
| 1777992167 | 22.22° C | 85% | 1008.7 hPa | 0 mm | - | 73 W/m² | - |
| 1777991864 | 22.22° C | 85% | 1008.3 hPa | 0 mm | - | 64 W/m² | - |
| 1777991562 | 22.22° C | 85% | 1008.5 hPa | 0 mm | - | 70 W/m² | - |
| 1777991258 | 22.22° C | 85% | 1008.6 hPa | 0 mm | - | 68 W/m² | - |
| 1777990956 | 22.22° C | 85% | 1008.6 hPa | 0 mm | - | 78 W/m² | - |
| 1777990653 | 21.67° C | 85% | 1008.7 hPa | 0 mm | - | 73 W/m² | - |
| 1777990351 | 21.67° C | 85% | 1008.6 hPa | 0 mm | - | 97 W/m² | - |
| 1777990046 | 21.67° C | 85% | 1008.5 hPa | 0 mm | - | 72 W/m² | - |
| 1777989743 | 21.67° C | 85% | 1008.4 hPa | 0 mm | - | 95 W/m² | - |
| 1777989440 | 21.67° C | 85% | 1008.4 hPa | 0 mm | - | 67 W/m² | - |
| 1777989136 | 21.67° C | 86% | 1008.5 hPa | 0 mm | - | 74 W/m² | - |
| 1777988832 | 21.67° C | 86% | 1008.7 hPa | 0 mm | - | 65 W/m² | - |
| 1777988530 | 21.11° C | 86% | 1008.6 hPa | 0 mm | - | 55 W/m² | - |
| 1777988226 | 21.11° C | 86% | 1008.7 hPa | 0 mm | - | 29 W/m² | - |
| 1777987923 | 21.11° C | 86% | 1008.6 hPa | 0 mm | - | 34 W/m² | - |
| 1777987618 | 21.11° C | 86% | 1008.7 hPa | 0 mm | - | 38 W/m² | - |
| 1777987316 | 21.11° C | 86% | 1008.5 hPa | 0 mm | - | 30 W/m² | - |
| 1777987013 | 21.11° C | 86% | 1008.5 hPa | 0 mm | - | 39 W/m² | - |
| 1777986711 | 21.11° C | 86% | 1008.3 hPa | 0 mm | - | 34 W/m² | - |
| 1777986409 | 21.11° C | 86% | 1008.6 hPa | 0 mm | - | 24 W/m² | - |
| 1777986107 | 21.11° C | 86% | 1008.5 hPa | 0 mm | - | 21 W/m² | - |
| 1777985803 | 21.11° C | 86% | 1008.5 hPa | 0 mm | - | 21 W/m² | - |
* Rain latest hour (hover to see other rain measurements)
** Current wind speed in m/s (hover to see current wind gust speed)